{"data":{"norad_id":68449,"intl_designator":"2026-067AK","name":"IRIDE-MS1-EAGLET 2-9","alt_names":[],"object_type":"PAYLOAD","status":"ACTIVE","operator":null,"country":"IT","launch_date":"2026-03-30","launch_site_code":"AFWTR","launch_vehicle":null,"mission":null,"orbit_class":"UNKNOWN","rcs_meters":null,"size_class":null,"mass_kg":null,"dimensions":null,"purposes":[],"wikipedia_slug":null,"has_3d_model":false,"image_url":null,"decayed_at":null,"tle_current":{"epoch":"2026-05-25T03:48:35.523072Z","epoch_age_seconds":55162,"freshness":"FRESH","line1":"1 68449U 26067AK  26145.15874448  .00006899  00000+0  34519-3 0  9997","line2":"2 68449  97.4496 103.8907 0005187 132.2236 227.9439 15.17716991  8449","mean_motion":15.17716991,"eccentricity":0.0005187,"inclination_deg":97.4496,"raan_deg":103.8907,"arg_perigee_deg":132.2236,"mean_anomaly_deg":227.9439,"bstar":0.00034519,"rev_number":844,"period_min":94.87934895235,"perigee_km":509.16801652787,"apogee_km":516.31661472991,"semimajor_km":6890.8793156289,"source":"CELESTRAK","updated_at":"2026-05-25T13:38:07.841768Z"}}}